Find Starlink 38374

NORAD ID: 100509 Int'l Des: 2026-197 Owner: SPXS Country: US Constellation: starlink operational

Current View

Loading 3D Globe...

About Starlink 38374

Starlink 38374 (NORAD 100509) is a starlink constellation satellite launched Aug 26, 2026 by SPXS of US. with a mass of 575.00 kg.

Upcoming Passes

Passes for default location (London). Set your location on the main map for personalized predictions.

Altitude History

Loading altitude history...

Two-Line Element Set

1 A0509U 26197H 26263.98353884 .00163428 00000-0 96120-3 0 9991
2 A0509 69.9994 120.3556 0003760 273.5452 86.5318 15.77597651 4062
Epoch: Sep 20, 2026 • Age: 4 hours

Current Status

Altitude 353.9 km
Apogee / Perigee N/A
Velocity 7.70 km/s
Sub-Earth Point -49.97°S, 89.21°W
Launch Date Aug 26, 2026
Age 25 days
Type internet

Technical Details

Classification Payload
Mass 575.00 kg
Dry Mass 530.00 kg
Length 0.30 m
Span 29.00 m
Shape ? Box + pan
Manufacturer SPXS
Bus Type Starlink V2MO
Phase Status In Orbit
Owner/State SPXS/US

Most Searched